カタログに戻る

CZ-3B R/B

運用中HEO
NORAD 45808·ROCKET BODY·🇨🇳 China

打ち上げ Jun 23, 2020 から Xichang Satellite Launch Center

Loading…

次のパス (今後24時間)

TLE

最新Source: Space-Track

元期: Sep 14, 2026, 04:49 UTC

1 45808U 20040B   26257.20089970  .00011235  00000-0  78460-3 0  9998
2 45808  28.2919 278.2804 6455579 166.4181 226.6311  3.42045824 64224

AllMySatでCZ-3B R/Bをリアルタイム追跡

Download on the App Store